Latest Weather Observations for Lake Grace

IDW60801

Issued at 9:05 pm WST Tuesday 21 October 2014 (issued every 30 minutes, with the page automatically refreshed every 10 minutes)

About weather observations | Map of weather stations | Latest weather observations for WA | Other Formats
Station Details ID: 010911 Name: LAKE GRACE Lat: -33.10 Lon: 118.46 Height: 286.0 m
Data from the previous 72 hours. | See also: Recent months at Lake Grace
Date/Time
WST
Temp
°C
App
Temp
°C
Dew
Point
Rel
Hum
%
Delta-T
°C
Wind Press
QNH
hPa
Press
MSL
hPa
Rain
since 9 am
mm
Dir
 
Spd
km/h
Gust
km/h
Spd
kts
Gust
kts
21/09:00pm 14.6 11.2 11.4 81 1.7 E 20 33 11 18 1022.8 1022.4 0.0
21/08:30pm 15.3 11.2 11.3 77 2.2 E 24 37 13 20 1022.8 1022.4 0.0
21/08:00pm 16.3 12.7 11.7 74 2.5 E 22 32 12 17 1022.7 1022.3 0.0
21/07:30pm 17.7 15.2 12.4 71 3.0 E 17 24 9 13 1022.4 1022.0 0.0
21/07:00pm 19.0 15.4 12.0 64 3.9 NE 22 32 12 17 1022.1 1021.7 0.0
21/06:30pm 20.5 20.7 10.6 53 5.5 CALM 0 6 0 3 1021.7 1021.2 0.0
21/06:00pm 21.7 20.5 9.6 46 6.6 SSW 6 9 3 5 1021.4 1020.9 0.0
21/05:30pm 22.4 21.1 9.9 45 6.9 SSW 7 11 4 6 1021.0 1020.5 0.0
21/05:00pm 22.4 20.7 9.9 45 6.9 S 9 15 5 8 1020.8 1020.3 0.0
21/04:30pm 22.2 20.5 9.7 45 6.8 SW 9 11 5 6 1020.9 1020.4 0.0
21/04:00pm 22.3 21.1 9.5 44 7.0 E 6 13 3 7 1021.1 1020.6 0.0
21/03:30pm 22.0 20.3 9.9 46 6.6 W 9 13 5 7 1021.2 1020.7 0.0
21/03:00pm 21.2 19.9 10.1 49 6.1 S 7 17 4 9 1021.2 1020.7 0.0
21/02:30pm 21.3 19.4 10.5 50 6.0 W 11 19 6 10 1021.3 1020.8 0.0
21/02:00pm 20.8 19.1 9.7 49 6.0 NNW 9 15 5 8 1021.5 1021.0 0.0
21/01:30pm 20.1 18.4 9.9 52 5.5 W 9 15 5 8 1022.0 1021.6 0.0
21/01:00pm 19.1 17.3 9.6 54 5.1 WSW 9 17 5 9 1022.4 1022.0 0.0
21/12:30pm 18.9 17.4 10.5 58 4.6 WSW 9 17 5 9 1022.6 1022.2 0.0
21/12:00pm 18.2 16.8 10.8 62 4.0 SSW 9 17 5 9 1022.7 1022.3 0.0
21/11:30am 17.2 15.8 10.8 66 3.5 W 9 19 5 10 1023.0 1022.6 0.0
21/11:00am 17.0 15.7 11.1 68 3.2 SSE 9 13 5 7 1023.3 1022.9 0.0
21/10:30am 16.3 15.4 10.8 70 3.0 SSE 6 11 3 6 1023.5 1023.1 0.0
21/10:00am 15.6 14.8 11.2 75 2.4 WNW 6 9 3 5 1023.5 1023.1 0.0
21/09:30am 14.3 13.5 10.9 80 1.8 SW 6 9 3 5 1023.5 1023.1 0.0
21/09:00am 13.7 12.5 11.6 87 1.1 S 9 13 5 7 1023.6 1023.2 5.2
21/08:30am 12.5 11.6 11.2 92 0.7 S 7 13 4 7 1023.6 1023.2 5.2
21/08:00am 11.4 9.9 10.6 95 0.4 SSW 9 15 5 8 1023.5 1023.1 5.2
21/07:30am 11.2 9.7 10.4 95 0.4 SSW 9 15 5 8 1023.1 1022.7 5.2
21/07:00am 11.0 9.8 10.4 96 0.3 SSW 7 11 4 6 1022.5 1022.1 5.2
21/06:30am 10.8 9.8 10.2 96 0.3 S 6 9 3 5 1022.3 1021.9 5.2
21/06:00am 10.6 9.3 10.0 96 0.3 SSW 7 11 4 6 1021.9 1021.5 5.2
21/05:30am 10.5 8.8 9.9 96 0.3 S 9 13 5 7 1021.6 1021.1 5.2
21/05:00am 10.3 8.1 9.5 95 0.4 SSW 11 15 6 8 1021.1 1020.6 5.2
21/04:30am 10.6 8.5 9.8 95 0.4 SSW 11 17 6 9 1020.6 1020.1 5.2
21/04:00am 10.8 9.1 9.9 94 0.5 S 9 15 5 8 1020.3 1019.9 5.2
21/03:30am 10.7 9.0 9.8 94 0.5 S 9 11 5 6 1020.1 1019.7 5.2
21/03:00am 10.7 9.3 9.6 93 0.6 S 7 11 4 6 1019.9 1019.5 5.2
21/02:30am 11.1 9.8 9.9 92 0.6 SSW 7 9 4 5 1019.9 1019.5 5.2
21/02:00am 11.2 10.1 9.9 92 0.7 SSW 6 9 3 5 1020.0 1019.6 5.2
21/01:30am 11.5 10.8 10.1 91 0.7 SSW 4 7 2 4 1020.1 1019.7 5.2
21/01:00am 11.7 10.5 10.3 91 0.7 SSW 7 11 4 6 1019.9 1019.5 5.2
21/12:30am 12.1 11.5 10.5 90 0.8 SSE 4 9 2 5 1020.0 1019.6 5.2
21/12:00am 12.6 10.8 10.7 88 1.0 S 11 19 6 10 1019.9 1019.5 5.2
 
Date/Time
WST
Temp
°C
App
Temp
°C
Dew
Point
Rel
Hum
%
Delta-T
°C
Wind Press
QNH
hPa
Press
MSL
hPa
Rain
since 9 am
mm
Dir
 
Spd
km/h
Gust
km/h
Spd
kts
Gust
kts
20/11:30pm 13.0 10.8 10.7 86 1.2 SSW 13 20 7 11 1020.2 1019.8 5.2
20/11:00pm 13.4 10.9 10.9 85 1.3 SSW 15 20 8 11 1020.2 1019.8 5.2
20/10:30pm 13.7 11.6 11.2 85 1.3 S 13 26 7 14 1019.9 1019.5 5.2
20/10:00pm 13.9 11.4 11.1 83 1.5 S 15 22 8 12 1019.9 1019.5 5.2
20/09:30pm 14.8 12.8 11.6 81 1.7 S 13 19 7 10 1019.8 1019.4 5.2
20/09:00pm 15.2 13.0 12.1 82 1.7 S 15 20 8 11 1019.9 1019.5 5.2
20/08:30pm 15.3 13.4 13.0 86 1.3 S 15 24 8 13 1019.8 1019.4 5.2
20/08:00pm 15.3 14.6 13.3 88 1.1 SW 9 17 5 9 1019.4 1019.0 5.0
20/07:30pm 16.6 15.1 13.1 80 2.0 SSW 13 22 7 12 1018.8 1018.3 4.8
20/07:00pm 16.5 15.4 13.2 81 1.9 SSW 11 17 6 9 1018.4 1017.9 4.8
20/06:30pm 17.0 15.4 12.9 77 2.3 SW 13 24 7 13 1018.1 1017.6 4.8
20/06:00pm 17.4 15.1 12.9 75 2.5 SW 17 28 9 15 1017.6 1017.1 4.8
20/05:30pm 17.7 14.8 13.0 74 2.7 SW 20 30 11 16 1017.2 1016.7 4.8
20/05:00pm 18.6 14.6 11.7 64 3.8 WSW 24 39 13 21 1016.6 1016.2 4.8
20/04:30pm 18.8 14.5 12.1 65 3.8 WSW 26 43 14 23 1016.1 1015.7 4.8
20/04:00pm 19.8 16.3 12.1 61 4.3 WSW 22 35 12 19 1015.5 1015.0 4.8
20/03:30pm 19.6 15.9 12.6 64 4.0 WSW 24 35 13 19 1014.9 1014.4 4.8
20/03:00pm 20.2 16.5 12.7 62 4.3 WSW 24 39 13 21 1014.5 1014.0 4.8
20/02:30pm 19.6 17.0 13.8 69 3.4 WSW 20 32 11 17 1014.4 1013.9 4.8
20/02:00pm 17.4 14.1 14.1 81 1.9 WSW 24 35 13 19 1014.6 1014.1 4.8
20/01:30pm 18.5 16.2 14.6 78 2.3 WSW 20 35 11 19 1014.5 1014.0 4.4
20/01:00pm 17.3 14.7 14.9 86 1.4 WSW 22 32 12 17 1014.4 1013.9 4.4
20/12:30pm 16.6 15.4 15.0 90 0.9 W 15 26 8 14 1014.5 1014.0 4.2
20/12:00pm 16.0 13.4 13.7 86 1.3 WSW 20 32 11 17 1014.4 1013.9 2.4
20/11:30am 17.5 15.0 15.1 86 1.4 WNW 22 33 12 18 1014.1 1013.6 0.2
20/11:00am 16.0 13.6 14.5 91 0.9 WNW 20 30 11 16 1014.1 1013.6 0.2
20/10:30am 15.2 12.9 14.1 93 0.6 WNW 19 26 10 14 1014.2 1013.7 0.2
20/10:00am 15.3 12.9 13.7 90 0.9 NW 19 24 10 13 1014.1 1013.6 0.0
20/09:30am 15.0 12.6 13.7 92 0.7 WNW 19 28 10 15 1014.1 1013.6 0.0
20/09:00am 13.8 11.0 12.5 92 0.7 WNW 19 28 10 15 1014.2 1013.7 26.2
20/08:30am 13.6 10.5 12.3 92 0.7 WNW 20 30 11 16 1014.0 1013.5 26.2
20/08:00am 12.9 9.7 12.0 94 0.5 WNW 20 30 11 16 1013.8 1013.3 26.2
20/07:30am 12.7 9.6 12.1 96 0.3 WNW 20 30 11 16 1013.6 1013.1 26.2
20/07:00am 11.9 8.7 11.4 97 0.3 WNW 19 26 10 14 1013.4 1012.9 26.2
20/06:30am 11.8 9.0 11.3 97 0.3 WNW 17 28 9 15 1013.2 1012.7 26.2
20/06:00am 11.5 8.6 11.0 97 0.3 WNW 17 22 9 12 1012.8 1012.3 26.2
20/05:30am 11.4 8.5 10.9 97 0.3 WNW 17 22 9 12 1012.4 1011.9 26.2
20/05:00am 11.5 8.6 11.0 97 0.3 WNW 17 22 9 12 1012.1 1011.6 26.2
20/04:30am 11.5 8.6 11.0 97 0.3 WNW 17 24 9 13 1011.7 1011.2 26.2
20/04:00am 11.5 9.4 11.0 97 0.3 WNW 13 19 7 10 1011.4 1010.9 26.2
20/03:30am 11.4 9.2 10.9 97 0.3 WNW 13 19 7 10 1011.0 1010.5 26.2
20/03:00am 11.4 9.2 10.9 97 0.3 W 13 19 7 10 1011.1 1010.6 26.2
20/02:30am 11.5 9.4 11.0 97 0.3 W 13 20 7 11 1011.2 1010.7 26.2
20/02:00am 11.6 9.5 11.1 97 0.3 W 13 19 7 10 1011.1 1010.6 26.2
20/01:30am 11.7 9.2 11.2 97 0.3 W 15 22 8 12 1011.3 1010.8 26.2
20/01:00am 11.7 9.6 11.2 97 0.3 W 13 20 7 11 1011.3 1010.8 26.0
20/12:30am 11.8 10.1 11.3 97 0.3 W 11 17 6 9 1011.3 1010.8 26.0
20/12:00am 12.0 10.0 11.5 97 0.3 WSW 13 17 7 9 1011.3 1010.8 26.0
 
Date/Time
WST
Temp
°C
App
Temp
°C
Dew
Point
Rel
Hum
%
Delta-T
°C
Wind Press
QNH
hPa
Press
MSL
hPa
Rain
since 9 am
mm
Dir
 
Spd
km/h
Gust
km/h
Spd
kts
Gust
kts
19/11:30pm 12.1 10.1 11.6 97 0.3 WSW 13 19 7 10 1011.6 1011.1 26.0
19/11:00pm 12.2 10.3 11.7 97 0.3 WSW 13 17 7 9 1011.5 1011.0 26.0
19/10:30pm 12.4 10.9 11.9 97 0.3 WSW 11 20 6 11 1011.7 1011.2 26.0
19/10:00pm 12.6 11.1 12.0 96 0.3 SW 11 19 6 10 1011.8 1011.3 26.0
19/09:30pm 12.7 10.9 12.1 96 0.3 SW 13 20 7 11 1011.8 1011.3 25.8
19/09:00pm 12.9 11.2 12.3 96 0.3 SW 13 20 7 11 1012.0 1011.5 25.8
19/08:30pm 13.1 11.7 12.3 95 0.4 WSW 11 17 6 9 1012.0 1011.5 25.8
19/08:00pm 13.4 12.5 12.6 95 0.4 SW 9 17 5 9 1011.5 1011.0 25.8
19/07:30pm 12.3 11.6 11.4 94 0.5 S 6 7 3 4 1010.9 1010.4 25.8
19/07:00pm 12.1 11.3 11.0 93 0.6 S 6 9 3 5 1010.8 1010.3 25.8
19/06:30pm 12.1 10.7 11.0 93 0.6 SSW 9 13 5 7 1011.2 1010.7 25.8
19/06:00pm 12.1 10.8 11.2 94 0.5 SE 9 19 5 10 1010.4 1009.9 25.8
19/05:30pm 12.2 10.2 11.4 95 0.4 SE 13 19 7 10 1010.1 1009.6 25.8
19/05:00pm 11.9 9.0 11.1 95 0.4 S 17 24 9 13 1010.7 1010.2 25.4
19/04:30pm 12.5 10.6 11.7 95 0.4 NNW 13 24 7 13 1010.6 1010.1 23.4
19/04:19pm 12.8 8.9 12.0 95 0.4 WSW 24 43 13 23 1010.5 1010.0 21.8
19/04:09pm 12.6 5.3 11.7 94 0.5 NW 41 70 22 38 1009.7 1009.1 16.4
19/04:08pm 12.9 6.1 12.0 94 0.5 NW 39 48 21 26 1009.9 1009.4 15.0
19/04:00pm 14.1 9.1 13.3 95 0.4 ESE 32 50 17 27 1009.8 1009.2 12.0
19/03:38pm 14.2 8.6 13.2 94 0.6 ESE 35 54 19 29 1009.3 1008.8 8.6
19/03:30pm 14.3 9.3 13.5 95 0.5 ESE 32 44 17 24 1009.7 1009.1 8.4
19/03:16pm 14.3 10.0 13.3 94 0.6 ESE 28 52 15 28 1010.0 1009.5 8.0
19/03:00pm 14.5 11.4 13.5 94 0.6 E 22 39 12 21 1010.1 1009.6 7.2
19/02:30pm 14.6 10.4 13.6 94 0.6 ESE 28 41 15 22 1010.3 1009.8 6.2
19/02:00pm 14.5 11.0 13.5 94 0.6 ESE 24 37 13 20 1011.2 1010.7 5.4
19/01:30pm 14.4 10.9 13.4 94 0.6 ESE 24 39 13 21 1011.9 1011.4 4.0
19/01:00pm 14.0 9.7 13.1 94 0.5 ESE 28 41 15 22 1011.8 1011.3 4.0
19/12:30pm 13.8 9.4 13.0 95 0.4 ESE 28 43 15 23 1012.3 1011.8 3.8
19/12:00pm 13.5 9.4 12.7 95 0.4 SE 26 39 14 21 1012.9 1012.5 3.4
19/11:30am 13.4 10.0 12.5 94 0.5 SE 22 33 12 18 1013.5 1013.0 3.0
19/11:00am 12.9 9.0 12.0 94 0.5 SE 24 37 13 20 1014.1 1013.6 2.2
19/10:30am 12.7 9.0 11.6 93 0.6 SSE 22 32 12 17 1014.8 1014.3 1.6
19/10:00am 13.1 9.2 12.0 93 0.6 SE 24 39 13 21 1015.2 1014.7 0.8
19/09:30am 12.7 7.9 11.6 93 0.6 SE 28 41 15 22 1015.7 1015.2 0.4
19/09:00am 12.6 7.3 11.3 92 0.7 SE 30 43 16 23 1015.6 1015.1 15.2
19/08:49am 12.6 7.8 11.5 93 0.6 SE 28 46 15 25 1015.7 1015.2 14.8
19/08:30am 12.6 7.8 11.5 93 0.6 SE 28 39 15 21 1016.1 1015.7 14.8
19/08:00am 12.4 8.3 11.3 93 0.6 SE 24 37 13 20 1016.5 1016.1 14.8
19/07:30am 12.1 7.9 11.2 94 0.5 SE 24 35 13 19 1016.7 1016.3 14.8
19/07:00am 12.1 7.9 11.2 94 0.5 ESE 24 37 13 20 1016.4 1016.0 14.6
19/06:30am 12.0 8.2 11.2 95 0.4 ESE 22 37 12 20 1016.2 1015.8 14.2
19/06:00am 11.9 8.4 11.0 94 0.5 ESE 20 30 11 16 1016.5 1016.1 14.0
19/05:30am 11.9 7.7 11.1 95 0.4 SE 24 37 13 20 1016.5 1016.1 13.8
19/05:00am 11.8 8.3 11.0 95 0.4 SE 20 32 11 17 1016.5 1016.1 13.6
19/04:30am 11.5 7.6 10.7 95 0.4 SE 22 37 12 20 1016.1 1015.7 13.6
19/04:00am 11.4 6.7 10.6 95 0.4 SE 26 37 14 20 1015.8 1015.3 13.6
19/03:30am 11.4 7.4 10.5 94 0.5 SE 22 35 12 19 1016.0 1015.6 13.6
19/03:00am 11.4 7.0 10.5 94 0.5 SE 24 35 13 19 1016.5 1016.1 13.6
19/02:30am 11.8 7.9 10.7 93 0.6 SE 22 35 12 19 1016.3 1015.9 13.4
19/02:00am 11.9 7.2 10.8 93 0.6 ESE 26 39 14 21 1016.6 1016.2 13.4
19/01:30am 11.7 7.4 10.8 94 0.5 SE 24 39 13 21 1016.5 1016.1 13.4
19/01:00am 11.6 7.7 10.8 95 0.4 ESE 22 35 12 19 1017.2 1016.7 13.4
19/12:30am 11.4 7.8 10.5 94 0.5 SE 20 33 11 18 1017.6 1017.1 13.4
19/12:00am 11.4 7.4 10.5 94 0.5 SE 22 33 12 18 1017.5 1017.0 13.4
 
Date/Time
WST
Temp
°C
App
Temp
°C
Dew
Point
Rel
Hum
%
Delta-T
°C
Wind Press
QNH
hPa
Press
MSL
hPa
Rain
since 9 am
mm
Dir
 
Spd
km/h
Gust
km/h
Spd
kts
Gust
kts
18/11:30pm 11.5 8.1 10.4 93 0.6 SE 19 28 10 15 1018.6 1018.1 13.2
18/11:00pm 11.5 7.9 10.6 94 0.5 SE 20 30 11 16 1018.6 1018.1 13.2
18/10:30pm 11.4 7.0 10.3 93 0.6 ESE 24 37 13 20 1018.7 1018.2 13.2
18/10:00pm 11.7 7.3 10.3 91 0.7 SE 24 39 13 21 1018.5 1018.0 13.0
18/09:30pm 12.4 8.0 10.5 88 1.0 ESE 24 41 13 22 1018.4 1017.9 13.0

Other Formats:

Comma delimited format used in spreadsheet applications
http://www.bom.gov.au/fwo/IDW60801/IDW60801.95637.axf

JavaScript Object Notation format (JSON) in row-major order
http://www.bom.gov.au/fwo/IDW60801/IDW60801.95637.json